Time,TemperatureF,DewpointF,PressureIn,WindDirection,WindDirectionDegrees,WindSpeedMPH,WindSpeedGustMPH,Humidity,HourlyPrecipIn,Conditions,Clouds,dailyrainin,SoftwareType,DateUTC
2013-08-25 00:02:00,51.3,49.4,29.77,NNE,15,0.0,0.0,93,-99.99,,,-99.99,WSDL version 423,2013-08-25 04:02:00,
2013-08-25 00:07:00,51.3,49.5,29.77,North,353,0.0,0.0,94,-99.99,,,-99.99,WSDL version 423,2013-08-25 04:07:00,
2013-08-25 00:12:00,51.1,49.7,29.77,NW,323,0.0,0.0,96,-99.99,,,-99.99,WSDL version 423,2013-08-25 04:12:00,
2013-08-25 00:17:00,51.1,49.9,29.77,North,5,0.0,0.0,96,-99.99,,,-99.99,WSDL version 423,2013-08-25 04:17:00,
2013-08-25 00:22:00,51.1,49.9,29.77,North,360,0.0,0.0,96,-99.99,,,-99.99,WSDL version 423,2013-08-25 04:22:00,
2013-08-25 00:27:00,50.9,49.7,29.77,North,360,0.0,0.0,96,-99.99,,,-99.99,WSDL version 423,2013-08-25 04:27:00,
2013-08-25 00:32:00,50.8,49.6,29.77,North,360,0.0,0.0,96,-99.99,,,-99.99,WSDL version 423,2013-08-25 04:32:00,
2013-08-25 00:36:00,50.6,49.4,29.77,North,360,0.0,0.0,96,-99.99,,,-99.99,WSDL version 423,2013-08-25 04:36:00,
2013-08-25 00:42:00,50.5,49.3,29.77,North,360,0.0,0.0,96,-99.99,,,-99.99,WSDL version 423,2013-08-25 04:42:00,
2013-08-25 00:47:00,50.4,49.1,29.77,North,360,0.0,0.0,96,-99.99,,,-99.99,WSDL version 423,2013-08-25 04:47:00,
2013-08-25 00:52:00,50.2,49.0,29.74,North,360,0.0,0.0,96,-99.99,,,-99.99,WSDL version 423,2013-08-25 04:52:00,
2013-08-25 00:56:00,50.2,49.3,29.74,North,360,0.0,0.0,97,-99.99,,,-99.99,WSDL version 423,2013-08-25 04:56:00,
2013-08-25 01:01:00,50.1,49.2,29.74,North,360,0.0,0.0,97,-99.99,,,-99.99,WSDL version 423,2013-08-25 05:01:00,
2013-08-25 01:06:00,49.9,48.8,29.74,NE,42,0.0,0.0,97,-99.99,,,-99.99,WSDL version 423,2013-08-25 05:06:00,
2013-08-25 01:11:00,49.9,48.9,29.74,NNW,338,0.0,0.0,96,-99.99,,,-99.99,WSDL version 423,2013-08-25 05:11:00,
2013-08-25 01:16:00,49.8,48.9,29.74,NNW,338,0.0,0.0,97,-99.99,,,-99.99,WSDL version 423,2013-08-25 05:16:00,
2013-08-25 01:21:00,49.8,48.9,29.77,North,357,0.0,0.0,97,-99.99,,,-99.99,WSDL version 423,2013-08-25 05:21:00,
2013-08-25 01:26:00,49.8,48.9,29.77,North,349,0.0,0.0,97,-99.99,,,-99.99,WSDL version 423,2013-08-25 05:26:00,
2013-08-25 01:31:00,49.7,49.1,29.77,NNW,340,0.0,0.0,98,-99.99,,,-99.99,WSDL version 423,2013-08-25 05:31:00,
2013-08-25 01:36:00,49.6,49.1,29.77,NNW,346,0.0,0.0,99,-99.99,,,-99.99,WSDL version 423,2013-08-25 05:36:00,
2013-08-25 01:41:00,49.6,49.3,29.77,North,360,0.0,0.0,99,-99.99,,,-99.99,WSDL version 423,2013-08-25 05:41:00,
2013-08-25 01:46:00,49.6,49.3,29.77,North,360,0.0,0.0,99,-99.99,,,-99.99,WSDL version 423,2013-08-25 05:46:00,
2013-08-25 01:51:00,49.6,49.3,29.74,North,360,0.0,0.0,99,-99.99,,,-99.99,WSDL version 423,2013-08-25 05:51:00,
2013-08-25 01:56:00,49.4,49.1,29.74,North,6,0.0,0.0,99,-99.99,,,-99.99,WSDL version 423,2013-08-25 05:56:00,
2013-08-25 02:01:00,49.4,49.2,29.74,North,3,0.0,0.0,100,-99.99,,,-99.99,WSDL version 423,2013-08-25 06:01:00,
2013-08-25 02:06:00,49.3,49.3,29.77,North,360,0.0,0.0,100,-99.99,,,-99.99,WSDL version 423,2013-08-25 06:06:00,
2013-08-25 02:11:00,49.2,49.2,29.77,NNW,343,0.0,0.0,100,-99.99,,,-99.99,WSDL version 423,2013-08-25 06:11:00,
2013-08-25 02:16:00,49.3,49.2,29.77,NNE,13,0.0,0.0,100,-99.99,,,-99.99,WSDL version 423,2013-08-25 06:16:00,
2013-08-25 02:21:00,49.1,49.1,29.77,NNE,20,0.0,0.0,100,-99.99,,,-99.99,WSDL version 423,2013-08-25 06:21:00,
2013-08-25 02:26:00,49.1,49.1,29.77,North,360,0.0,0.0,100,-99.99,,,-99.99,WSDL version 423,2013-08-25 06:26:00,
2013-08-25 02:31:00,49.1,49.1,29.77,North,360,0.0,0.0,100,-99.99,,,-99.99,WSDL version 423,2013-08-25 06:31:00,
2013-08-25 02:36:00,49.0,49.0,29.77,North,5,0.0,0.0,100,-99.99,,,-99.99,WSDL version 423,2013-08-25 06:36:00,
2013-08-25 02:41:00,48.9,48.9,29.77,NNW,346,0.0,0.0,100,-99.99,,,-99.99,WSDL version 423,2013-08-25 06:41:00,
2013-08-25 02:46:00,48.9,48.9,29.77,NNW,338,0.0,0.0,100,-99.99,,,-99.99,WSDL version 423,2013-08-25 06:46:00,
2013-08-25 02:51:00,48.8,48.8,29.77,NNW,338,0.0,0.0,100,-99.99,,,-99.99,WSDL version 423,2013-08-25 06:51:00,
2013-08-25 02:56:00,48.7,48.7,29.77,NNE,20,0.0,0.0,100,-99.99,,,-99.99,WSDL version 423,2013-08-25 06:56:00,
2013-08-25 03:01:00,48.7,48.7,29.77,North,8,0.0,0.0,100,-99.99,,,-99.99,WSDL version 423,2013-08-25 07:01:00,
2013-08-25 03:06:00,48.7,48.7,29.77,NNW,332,0.0,0.0,100,-99.99,,,-99.99,WSDL version 423,2013-08-25 07:06:00,
2013-08-25 03:11:00,48.7,48.7,29.77,North,353,0.0,0.0,100,-99.99,,,-99.99,WSDL version 423,2013-08-25 07:11:00,
2013-08-25 03:16:00,48.7,48.7,29.77,North,354,0.0,0.0,100,-99.99,,,-99.99,WSDL version 423,2013-08-25 07:16:00,
2013-08-25 03:21:00,48.7,48.7,29.77,NNW,348,0.0,0.0,100,-99.99,,,-99.99,WSDL version 423,2013-08-25 07:21:00,
2013-08-25 03:26:00,48.7,48.7,29.77,NNW,338,0.0,0.0,100,-99.99,,,-99.99,WSDL version 423,2013-08-25 07:26:00,
2013-08-25 03:31:00,48.7,48.7,29.77,NNW,338,0.0,0.0,100,-99.99,,,-99.99,WSDL version 423,2013-08-25 07:31:00,
2013-08-25 03:36:00,48.7,48.7,29.74,NNW,338,0.0,0.0,100,-99.99,,,-99.99,WSDL version 423,2013-08-25 07:36:00,
2013-08-25 03:41:00,48.6,48.6,29.74,NNW,338,0.0,0.0,100,-99.99,,,-99.99,WSDL version 423,2013-08-25 07:41:00,
2013-08-25 03:46:00,48.4,48.4,29.74,NNW,338,0.0,0.0,100,-99.99,,,-99.99,WSDL version 423,2013-08-25 07:46:00,
2013-08-25 03:51:00,48.3,48.3,29.77,NNW,338,0.0,0.0,100,-99.99,,,-99.99,WSDL version 423,2013-08-25 07:51:00,
2013-08-25 03:56:00,48.2,48.2,29.77,North,360,0.0,0.0,100,-99.99,,,-99.99,WSDL version 423,2013-08-25 07:56:00,
2013-08-25 04:01:00,48.0,48.0,29.77,NNW,338,0.0,0.0,100,-99.99,,,-99.99,WSDL version 423,2013-08-25 08:01:00,
2013-08-25 04:06:00,48.0,48.0,29.77,NNW,338,0.0,0.0,100,-99.99,,,-99.99,WSDL version 423,2013-08-25 08:06:00,
2013-08-25 04:11:00,47.9,47.9,29.77,NNW,338,0.0,0.0,100,-99.99,,,-99.99,WSDL version 423,2013-08-25 08:11:00,
2013-08-25 04:16:00,47.8,47.8,29.77,North,360,0.0,0.0,100,-99.99,,,-99.99,WSDL version 423,2013-08-25 08:16:00,
2013-08-25 04:21:00,47.8,47.8,29.74,NNW,338,0.0,0.0,100,-99.99,,,-99.99,WSDL version 423,2013-08-25 08:21:00,
2013-08-25 04:26:00,47.7,47.7,29.74,NNW,338,0.0,0.0,100,-99.99,,,-99.99,WSDL version 423,2013-08-25 08:26:00,
2013-08-25 04:31:00,47.6,47.6,29.74,North,360,0.0,0.0,100,-99.99,,,-99.99,WSDL version 423,2013-08-25 08:31:00,
2013-08-25 04:36:00,47.5,47.5,29.77,North,357,0.0,0.0,100,-99.99,,,-99.99,WSDL version 423,2013-08-25 08:36:00,
2013-08-25 04:41:00,47.5,47.5,29.77,NNW,332,0.0,0.0,100,-99.99,,,-99.99,WSDL version 423,2013-08-25 08:41:00,
2013-08-25 04:46:00,47.5,47.5,29.77,NNW,340,0.0,0.0,100,-99.99,,,-99.99,WSDL version 423,2013-08-25 08:46:00,
2013-08-25 04:51:00,47.5,47.5,29.77,North,3,0.0,0.0,100,-99.99,,,-99.99,WSDL version 423,2013-08-25 08:51:00,
2013-08-25 04:56:00,47.5,47.5,29.77,NW,315,0.0,0.0,100,-99.99,,,-99.99,WSDL version 423,2013-08-25 08:56:00,
2013-08-25 05:01:00,47.5,47.5,29.77,NW,315,0.0,0.0,100,-99.99,,,-99.99,WSDL version 423,2013-08-25 09:01:00,
2013-08-25 05:06:00,47.4,47.4,29.77,NW,315,0.0,0.0,100,-99.99,,,-99.99,WSDL version 423,2013-08-25 09:06:00,
2013-08-25 05:11:00,47.3,47.3,29.77,NW,315,0.0,0.0,100,-99.99,,,-99.99,WSDL version 423,2013-08-25 09:11:00,
2013-08-25 05:16:00,47.2,47.2,29.77,North,6,0.0,0.0,100,-99.99,,,-99.99,WSDL version 423,2013-08-25 09:16:00,
2013-08-25 05:21:00,47.0,47.0,29.77,NE,45,0.0,0.0,100,-99.99,,,-99.99,WSDL version 423,2013-08-25 09:21:00,
2013-08-25 05:26:00,46.9,46.9,29.77,NNE,23,0.0,0.0,100,-99.99,,,-99.99,WSDL version 423,2013-08-25 09:26:00,
2013-08-25 05:31:00,46.9,46.9,29.77,NNE,23,0.0,0.0,100,-99.99,,,-99.99,WSDL version 423,2013-08-25 09:31:00,
2013-08-25 05:36:00,46.8,46.8,29.77,NNE,23,0.0,0.0,100,-99.99,,,-99.99,WSDL version 423,2013-08-25 09:36:00,
2013-08-25 05:41:00,46.8,46.8,29.77,NNW,338,0.0,0.0,100,-99.99,,,-99.99,WSDL version 423,2013-08-25 09:41:00,
2013-08-25 05:46:00,46.8,46.8,29.77,NNW,338,0.0,0.0,100,-99.99,,,-99.99,WSDL version 423,2013-08-25 09:46:00,
2013-08-25 05:51:00,46.8,46.8,29.77,North,360,0.0,0.0,100,-99.99,,,-99.99,WSDL version 423,2013-08-25 09:51:00,
2013-08-25 05:56:00,46.8,46.8,29.77,North,5,0.0,0.0,100,-99.99,,,-99.99,WSDL version 423,2013-08-25 09:56:00,
2013-08-25 06:01:00,46.7,46.7,29.77,North,349,0.0,0.0,100,-99.99,,,-99.99,WSDL version 423,2013-08-25 10:01:00,
2013-08-25 06:06:00,46.7,46.7,29.77,North,360,0.0,0.0,100,-99.99,,,-99.99,WSDL version 423,2013-08-25 10:06:00,
2013-08-25 06:11:00,46.7,46.7,29.77,NNW,340,0.0,0.0,100,-99.99,,,-99.99,WSDL version 423,2013-08-25 10:11:00,
2013-08-25 06:16:00,46.7,46.7,29.77,NW,315,0.0,0.0,100,-99.99,,,-99.99,WSDL version 423,2013-08-25 10:16:00,
2013-08-25 06:21:00,46.8,46.8,29.77,NW,315,0.0,0.0,100,-99.99,,,-99.99,WSDL version 423,2013-08-25 10:21:00,
2013-08-25 06:26:00,46.8,46.8,29.77,NW,315,0.0,0.0,100,-99.99,,,-99.99,WSDL version 423,2013-08-25 10:26:00,
2013-08-25 06:31:00,46.7,46.7,29.77,NW,321,0.0,0.0,100,-99.99,,,-99.99,WSDL version 423,2013-08-25 10:31:00,
2013-08-25 06:36:00,46.7,46.7,29.77,North,355,0.0,0.0,100,-99.99,,,-99.99,WSDL version 423,2013-08-25 10:36:00,
2013-08-25 06:41:00,46.8,46.8,29.77,NNW,338,0.0,0.0,100,-99.99,,,-99.99,WSDL version 423,2013-08-25 10:41:00,
2013-08-25 06:46:00,46.9,46.8,29.77,NNW,338,0.0,0.0,100,-99.99,,,-99.99,WSDL version 423,2013-08-25 10:46:00,
2013-08-25 06:51:00,46.9,46.9,29.77,NNW,338,0.0,0.0,100,-99.99,,,-99.99,WSDL version 423,2013-08-25 10:51:00,
2013-08-25 06:56:00,47.0,47.0,29.77,North,360,0.0,0.0,100,-99.99,,,-99.99,WSDL version 423,2013-08-25 10:56:00,
2013-08-25 07:01:00,47.7,47.7,29.77,North,357,0.0,0.0,100,-99.99,,,-99.99,WSDL version 423,2013-08-25 11:01:00,
2013-08-25 07:06:00,49.1,49.1,29.77,North,360,0.0,0.0,100,-99.99,,,-99.99,WSDL version 423,2013-08-25 11:06:00,
2013-08-25 07:11:00,50.3,50.3,29.77,North,357,0.0,0.0,100,-99.99,,,-99.99,WSDL version 423,2013-08-25 11:11:00,
2013-08-25 07:16:00,51.5,51.5,29.77,NNW,340,0.0,0.0,100,-99.99,,,-99.99,WSDL version 423,2013-08-25 11:16:00,
2013-08-25 07:21:00,52.2,52.2,29.77,NNW,338,0.0,0.0,100,-99.99,,,-99.99,WSDL version 423,2013-08-25 11:21:00,
2013-08-25 07:26:00,53.0,53.0,29.77,NNW,335,0.0,0.0,100,-99.99,,,-99.99,WSDL version 423,2013-08-25 11:26:00,
2013-08-25 07:31:00,53.8,53.7,29.77,North,353,0.0,0.0,100,-99.99,,,-99.99,WSDL version 423,2013-08-25 11:31:00,
2013-08-25 07:36:00,53.9,53.9,29.77,NNW,335,0.0,0.0,100,-99.99,,,-99.99,WSDL version 423,2013-08-25 11:36:00,
2013-08-25 07:41:00,54.0,54.0,29.77,North,349,0.0,0.0,100,-99.99,,,-99.99,WSDL version 423,2013-08-25 11:41:00,
2013-08-25 07:46:00,54.1,54.1,29.77,NW,325,0.0,0.0,100,-99.99,,,-99.99,WSDL version 423,2013-08-25 11:46:00,
2013-08-25 07:51:00,54.1,54.1,29.77,NNW,348,0.0,0.0,100,-99.99,,,-99.99,WSDL version 423,2013-08-25 11:51:00,
2013-08-25 07:56:00,54.3,54.0,29.77,NNW,340,0.0,0.0,99,-99.99,,,-99.99,WSDL version 423,2013-08-25 11:56:00,
2013-08-25 08:01:00,54.5,54.0,29.77,NNW,328,0.0,0.0,98,-99.99,,,-99.99,WSDL version 423,2013-08-25 12:01:00,
2013-08-25 08:06:00,54.6,53.7,29.77,NNW,346,0.0,0.0,97,-99.99,,,-99.99,WSDL version 423,2013-08-25 12:06:00,
2013-08-25 08:11:00,54.9,54.0,29.77,North,360,0.0,0.0,97,-99.99,,,-99.99,WSDL version 423,2013-08-25 12:11:00,
2013-08-25 08:16:00,55.3,54.2,29.77,NNW,344,0.0,0.0,96,-99.99,,,-99.99,WSDL version 423,2013-08-25 12:16:00,
2013-08-25 08:21:00,55.9,54.8,29.77,NNE,25,0.0,0.0,97,-99.99,,,-99.99,WSDL version 423,2013-08-25 12:21:00,
2013-08-25 08:26:00,57.2,56.4,29.77,North,354,0.0,0.0,98,-99.99,,,-99.99,WSDL version 423,2013-08-25 12:26:00,
2013-08-25 08:31:00,58.4,57.6,29.77,North,358,0.0,0.0,98,-99.99,,,-99.99,WSDL version 423,2013-08-25 12:31:00,
2013-08-25 08:36:00,59.6,58.5,29.77,NNE,18,0.0,0.0,96,-99.99,,,-99.99,WSDL version 423,2013-08-25 12:36:00,
2013-08-25 08:41:00,60.8,58.8,29.77,NNW,348,0.0,0.0,91,-99.99,,,-99.99,WSDL version 423,2013-08-25 12:41:00,
2013-08-25 08:46:00,61.8,58.4,29.77,NNE,13,0.0,0.0,87,-99.99,,,-99.99,WSDL version 423,2013-08-25 12:46:00,
2013-08-25 08:51:00,62.7,57.8,29.74,NNE,20,0.0,0.0,82,-99.99,,,-99.99,WSDL version 423,2013-08-25 12:51:00,
2013-08-25 08:56:00,64.1,58.3,29.74,NNE,23,0.0,0.0,81,-99.99,,,-99.99,WSDL version 423,2013-08-25 12:56:00,
2013-08-25 09:01:00,65.2,58.0,29.74,SE,145,0.0,0.0,76,-99.99,,,-99.99,WSDL version 423,2013-08-25 13:01:00,
2013-08-25 09:06:00,66.4,58.5,29.74,SSE,150,0.0,0.0,74,-99.99,,,-99.99,WSDL version 423,2013-08-25 13:06:00,
2013-08-25 09:11:00,67.9,58.4,29.74,North,3,0.0,0.0,71,-99.99,,,-99.99,WSDL version 423,2013-08-25 13:11:00,
2013-08-25 09:16:00,69.9,59.7,29.74,West,270,0.0,0.0,70,-99.99,,,-99.99,WSDL version 423,2013-08-25 13:16:00,
2013-08-25 09:21:00,70.6,58.3,29.74,South,174,0.0,0.0,62,-99.99,,,-99.99,WSDL version 423,2013-08-25 13:21:00,
2013-08-25 09:26:00,70.9,57.3,29.74,SW,225,0.0,0.0,60,-99.99,,,-99.99,WSDL version 423,2013-08-25 13:26:00,
2013-08-25 09:31:00,70.6,55.9,29.74,SSW,193,0.0,0.0,59,-99.99,,,-99.99,WSDL version 423,2013-08-25 13:31:00,
2013-08-25 09:36:00,70.2,55.2,29.74,SSW,203,0.0,0.0,58,-99.99,,,-99.99,WSDL version 423,2013-08-25 13:36:00,
2013-08-25 09:41:00,70.1,55.2,29.74,SW,225,0.0,0.0,59,-99.99,,,-99.99,WSDL version 423,2013-08-25 13:41:00,
2013-08-25 09:46:00,70.6,56.3,29.74,SW,225,0.0,0.0,61,-99.99,,,-99.99,WSDL version 423,2013-08-25 13:46:00,
2013-08-25 09:51:00,71.5,56.8,29.74,SSW,205,0.0,0.0,59,-99.99,,,-99.99,WSDL version 423,2013-08-25 13:51:00,
2013-08-25 10:01:00,70.8,55.5,29.74,SSW,205,0.0,0.0,60,-99.99,,,-99.99,WSDL version 423,2013-08-25 14:01:00,
2013-08-25 10:06:00,71.9,57.1,29.71,SW,225,0.0,0.0,59,-99.99,,,-99.99,WSDL version 423,2013-08-25 14:06:00,
2013-08-25 10:11:00,73.7,59.0,29.71,SW,225,0.0,0.0,60,-99.99,,,-99.99,WSDL version 423,2013-08-25 14:11:00,
2013-08-25 10:16:00,75.4,59.3,29.71,SW,225,0.0,0.0,56,-99.99,,,-99.99,WSDL version 423,2013-08-25 14:16:00,
2013-08-25 10:21:00,76.5,59.4,29.71,SW,225,0.0,0.0,53,-99.99,,,-99.99,WSDL version 423,2013-08-25 14:21:00,
2013-08-25 10:26:00,77.8,60.0,29.71,WSW,242,0.0,0.0,55,-99.99,,,-99.99,WSDL version 423,2013-08-25 14:26:00,
2013-08-25 10:31:00,78.9,59.7,29.71,WSW,238,0.0,0.0,51,-99.99,,,-99.99,WSDL version 423,2013-08-25 14:31:00,
2013-08-25 10:36:00,80.0,59.2,29.71,SSW,200,0.0,0.0,45,-99.99,,,-99.99,WSDL version 423,2013-08-25 14:36:00,
2013-08-25 10:41:00,80.8,58.3,29.71,SW,220,0.0,0.0,46,-99.99,,,-99.99,WSDL version 423,2013-08-25 14:41:00,
2013-08-25 10:46:00,81.1,57.0,29.71,SW,219,0.0,0.0,43,-99.99,,,-99.99,WSDL version 423,2013-08-25 14:46:00,
2013-08-25 10:51:00,81.9,57.5,29.68,SW,215,0.0,0.0,42,-99.99,,,-99.99,WSDL version 423,2013-08-25 14:51:00,
2013-08-25 10:56:00,82.4,56.5,29.68,WSW,256,0.0,0.0,42,-99.99,,,-99.99,WSDL version 423,2013-08-25 14:56:00,
2013-08-25 11:01:00,83.2,56.5,29.68,SW,217,0.0,0.9,39,-99.99,,,-99.99,WSDL version 423,2013-08-25 15:01:00,
2013-08-25 11:06:00,83.5,56.0,29.71,SSW,210,0.0,0.9,39,-99.99,,,-99.99,WSDL version 423,2013-08-25 15:06:00,
2013-08-25 11:11:00,84.0,56.1,29.71,WSW,248,0.0,0.0,38,-99.99,,,-99.99,WSDL version 423,2013-08-25 15:11:00,
2013-08-25 11:16:00,83.6,55.3,29.71,South,177,0.0,0.0,38,-99.99,,,-99.99,WSDL version 423,2013-08-25 15:16:00,
2013-08-25 11:21:00,84.5,56.7,29.68,SW,214,0.0,0.0,39,-99.99,,,-99.99,WSDL version 423,2013-08-25 15:21:00,
2013-08-25 11:26:00,84.1,54.3,29.68,SW,218,0.0,0.0,37,-99.99,,,-99.99,WSDL version 423,2013-08-25 15:26:00,
2013-08-25 11:31:00,84.3,54.5,29.68,WSW,242,0.0,0.0,36,-99.99,,,-99.99,WSDL version 423,2013-08-25 15:31:00,
2013-08-25 11:36:00,85.4,55.3,29.68,SSW,194,0.0,0.0,36,-99.99,,,-99.99,WSDL version 423,2013-08-25 15:36:00,
2013-08-25 11:41:00,86.1,55.2,29.68,SSW,193,0.0,0.0,34,-99.99,,,-99.99,WSDL version 423,2013-08-25 15:41:00,
2013-08-25 11:46:00,86.0,53.1,29.68,SW,231,0.0,1.1,33,-99.99,,,-99.99,WSDL version 423,2013-08-25 15:46:00,
2013-08-25 11:51:00,86.1,53.8,29.68,WSW,240,0.0,1.1,34,-99.99,,,-99.99,WSDL version 423,2013-08-25 15:51:00,
2013-08-25 11:56:00,86.2,54.0,29.68,SSW,208,0.0,1.1,33,-99.99,,,-99.99,WSDL version 423,2013-08-25 15:56:00,
2013-08-25 12:01:00,86.5,53.9,29.68,SW,220,0.0,1.1,33,-99.99,,,-99.99,WSDL version 423,2013-08-25 16:01:00,
2013-08-25 12:06:00,86.8,53.6,29.68,SW,225,0.0,1.1,32,-99.99,,,-99.99,WSDL version 423,2013-08-25 16:06:00,
2013-08-25 12:11:00,87.0,53.6,29.68,SSW,211,0.0,1.1,32,-99.99,,,-99.99,WSDL version 423,2013-08-25 16:11:00,
2013-08-25 12:16:00,87.4,54.4,29.68,SW,228,0.0,1.1,32,-99.99,,,-99.99,WSDL version 423,2013-08-25 16:16:00,
2013-08-25 12:21:00,86.8,52.6,29.68,SW,219,0.0,1.1,31,-99.99,,,-99.99,WSDL version 423,2013-08-25 16:21:00,
2013-08-25 12:26:00,86.3,52.4,29.68,SW,225,0.0,0.9,31,-99.99,,,-99.99,WSDL version 423,2013-08-25 16:26:00,
2013-08-25 12:31:00,86.0,51.9,29.68,WSW,241,0.0,0.9,31,-99.99,,,-99.99,WSDL version 423,2013-08-25 16:31:00,
2013-08-25 12:36:00,86.1,51.8,29.68,South,188,0.0,1.1,31,-99.99,,,-99.99,WSDL version 423,2013-08-25 16:36:00,
2013-08-25 12:41:00,85.9,51.8,29.68,SW,236,0.0,1.1,31,-99.99,,,-99.99,WSDL version 423,2013-08-25 16:41:00,
2013-08-25 12:46:00,84.9,51.3,29.68,WSW,239,0.0,1.1,32,-99.99,,,-99.99,WSDL version 423,2013-08-25 16:46:00,
2013-08-25 12:51:00,85.1,51.7,29.68,SW,215,0.0,0.9,32,-99.99,,,-99.99,WSDL version 423,2013-08-25 16:51:00,
2013-08-25 12:56:00,85.8,52.1,29.68,SSW,208,0.0,0.9,31,-99.99,,,-99.99,WSDL version 423,2013-08-25 16:56:00,
2013-08-25 13:01:00,86.3,52.3,29.68,WSW,258,0.0,1.1,31,-99.99,,,-99.99,WSDL version 423,2013-08-25 17:01:00,
2013-08-25 13:06:00,87.0,53.1,29.65,SE,124,0.0,1.1,31,-99.99,,,-99.99,WSDL version 423,2013-08-25 17:06:00,
2013-08-25 13:11:00,87.0,52.2,29.65,SSW,210,0.0,0.9,29,-99.99,,,-99.99,WSDL version 423,2013-08-25 17:11:00,
2013-08-25 13:16:00,87.3,52.4,29.65,West,270,0.0,0.9,30,-99.99,,,-99.99,WSDL version 423,2013-08-25 17:16:00,
2013-08-25 13:21:00,87.8,52.4,29.65,WSW,248,0.0,0.9,30,-99.99,,,-99.99,WSDL version 423,2013-08-25 17:21:00,
2013-08-25 13:26:00,88.2,52.5,29.65,WSW,240,0.0,0.9,29,-99.99,,,-99.99,WSDL version 423,2013-08-25 17:26:00,
2013-08-25 13:31:00,87.9,52.0,29.65,West,262,0.0,0.9,30,-99.99,,,-99.99,WSDL version 423,2013-08-25 17:31:00,
2013-08-25 13:36:00,85.8,50.8,29.68,WSW,239,0.0,0.9,30,-99.99,,,-99.99,WSDL version 423,2013-08-25 17:36:00,
2013-08-25 13:41:00,85.8,51.0,29.68,WSW,242,0.0,0.9,31,-99.99,,,-99.99,WSDL version 423,2013-08-25 17:41:00,
2013-08-25 13:46:00,86.2,51.0,29.68,SW,233,0.0,0.9,30,-99.99,,,-99.99,WSDL version 423,2013-08-25 17:46:00,
2013-08-25 13:51:00,86.9,51.2,29.68,WSW,240,0.0,0.9,29,-99.99,,,-99.99,WSDL version 423,2013-08-25 17:51:00,
2013-08-25 13:56:00,87.2,51.3,29.68,South,183,0.0,0.9,29,-99.99,,,-99.99,WSDL version 423,2013-08-25 17:56:00,
2013-08-25 14:01:00,87.7,51.8,29.68,WSW,238,0.0,0.9,29,-99.99,,,-99.99,WSDL version 423,2013-08-25 18:01:00,
2013-08-25 14:06:00,88.0,51.4,29.65,WSW,256,0.0,1.1,29,-99.99,,,-99.99,WSDL version 423,2013-08-25 18:06:00,
2013-08-25 14:11:00,87.2,50.5,29.65,SSW,198,0.0,1.1,28,-99.99,,,-99.99,WSDL version 423,2013-08-25 18:11:00,
2013-08-25 14:16:00,86.6,50.3,29.65,SW,222,0.0,1.1,29,-99.99,,,-99.99,WSDL version 423,2013-08-25 18:16:00,
2013-08-25 14:21:00,85.9,50.3,29.65,WSW,238,0.0,1.3,30,-99.99,,,-99.99,WSDL version 423,2013-08-25 18:21:00,
2013-08-25 14:26:00,85.4,49.6,29.65,SSW,210,0.0,1.3,29,-99.99,,,-99.99,WSDL version 423,2013-08-25 18:26:00,
2013-08-25 14:31:00,85.1,50.1,29.65,WSW,238,0.0,0.9,30,-99.99,,,-99.99,WSDL version 423,2013-08-25 18:31:00,
2013-08-25 14:36:00,84.4,49.3,29.65,SW,215,0.0,0.9,30,-99.99,,,-99.99,WSDL version 423,2013-08-25 18:36:00,
2013-08-25 14:41:00,83.8,49.1,29.65,South,191,0.0,1.1,30,-99.99,,,-99.99,WSDL version 423,2013-08-25 18:41:00,
2013-08-25 14:46:00,82.7,48.1,29.65,WSW,250,0.0,1.1,30,-99.99,,,-99.99,WSDL version 423,2013-08-25 18:46:00,
2013-08-25 14:51:00,81.6,47.9,29.65,SW,225,0.0,0.9,31,-99.99,,,-99.99,WSDL version 423,2013-08-25 18:51:00,
2013-08-25 14:56:00,80.8,48.0,29.65,SSW,193,0.0,0.9,32,-99.99,,,-99.99,WSDL version 423,2013-08-25 18:56:00,
2013-08-25 15:01:00,80.6,48.3,29.65,SW,219,0.0,0.9,33,-99.99,,,-99.99,WSDL version 423,2013-08-25 19:01:00,
2013-08-25 15:06:00,80.2,49.2,29.65,WSW,239,0.0,0.9,34,-99.99,,,-99.99,WSDL version 423,2013-08-25 19:06:00,
2013-08-25 15:11:00,79.5,48.9,29.65,SW,231,0.0,0.9,35,-99.99,,,-99.99,WSDL version 423,2013-08-25 19:11:00,
2013-08-25 15:16:00,79.1,49.4,29.65,SW,228,0.0,0.9,36,-99.99,,,-99.99,WSDL version 423,2013-08-25 19:16:00,
2013-08-25 15:21:00,79.0,50.8,29.65,WSW,243,0.0,0.9,39,-99.99,,,-99.99,WSDL version 423,2013-08-25 19:21:00,
2013-08-25 15:26:00,79.2,52.4,29.65,SW,219,0.0,0.0,39,-99.99,,,-99.99,WSDL version 423,2013-08-25 19:26:00,
2013-08-25 15:31:00,79.3,52.1,29.65,WSW,243,0.0,0.9,39,-99.99,,,-99.99,WSDL version 423,2013-08-25 19:31:00,
2013-08-25 15:36:00,79.2,51.7,29.65,SW,220,0.0,1.1,38,-99.99,,,-99.99,WSDL version 423,2013-08-25 19:36:00,
2013-08-25 15:41:00,79.0,51.8,29.65,West,270,0.0,1.1,38,-99.99,,,-99.99,WSDL version 423,2013-08-25 19:41:00,
2013-08-25 15:46:00,79.0,52.0,29.65,SSW,205,0.0,1.1,39,-99.99,,,-99.99,WSDL version 423,2013-08-25 19:46:00,
2013-08-25 15:51:00,78.7,51.4,29.65,SSW,194,0.0,1.1,39,-99.99,,,-99.99,WSDL version 423,2013-08-25 19:51:00,
2013-08-25 15:56:00,78.5,51.3,29.65,SW,225,0.0,0.9,38,-99.99,,,-99.99,WSDL version 423,2013-08-25 19:56:00,
2013-08-25 16:01:00,78.1,51.0,29.65,SW,231,0.0,0.0,38,-99.99,,,-99.99,WSDL version 423,2013-08-25 20:01:00,
2013-08-25 16:06:00,77.8,50.0,29.62,SSW,200,0.0,0.9,38,-99.99,,,-99.99,WSDL version 423,2013-08-25 20:06:00,
2013-08-25 16:11:00,77.3,49.5,29.62,SSW,213,0.0,0.9,38,-99.99,,,-99.99,WSDL version 423,2013-08-25 20:11:00,
2013-08-25 16:16:00,77.1,50.0,29.62,South,180,0.0,0.0,39,-99.99,,,-99.99,WSDL version 423,2013-08-25 20:16:00,
2013-08-25 16:21:00,77.0,50.3,29.59,SSW,208,0.0,0.9,39,-99.99,,,-99.99,WSDL version 423,2013-08-25 20:21:00,
2013-08-25 16:26:00,76.9,50.5,29.59,SW,231,0.0,0.9,40,-99.99,,,-99.99,WSDL version 423,2013-08-25 20:26:00,
2013-08-25 16:31:00,76.9,50.9,29.59,SW,233,0.0,0.9,40,-99.99,,,-99.99,WSDL version 423,2013-08-25 20:31:00,
2013-08-25 16:36:00,77.0,51.0,29.59,SW,219,0.0,0.9,41,-99.99,,,-99.99,WSDL version 423,2013-08-25 20:36:00,
2013-08-25 16:41:00,77.2,51.7,29.59,SW,228,0.0,0.0,41,-99.99,,,-99.99,WSDL version 423,2013-08-25 20:41:00,
2013-08-25 16:46:00,77.2,51.7,29.59,WSW,256,0.0,0.0,41,-99.99,,,-99.99,WSDL version 423,2013-08-25 20:46:00,
2013-08-25 16:51:00,77.1,51.6,29.59,WSW,248,0.0,0.0,41,-99.99,,,-99.99,WSDL version 423,2013-08-25 20:51:00,
2013-08-25 16:56:00,76.9,51.5,29.59,SW,223,0.0,0.0,42,-99.99,,,-99.99,WSDL version 423,2013-08-25 20:56:00,
2013-08-25 17:01:00,76.7,51.6,29.59,South,177,0.0,1.1,41,-99.99,,,-99.99,WSDL version 423,2013-08-25 21:01:00,
2013-08-25 17:06:00,76.5,51.6,29.59,SW,228,0.0,1.1,42,-99.99,,,-99.99,WSDL version 423,2013-08-25 21:06:00,
2013-08-25 17:11:00,76.3,51.6,29.59,SW,231,0.0,0.0,42,-99.99,,,-99.99,WSDL version 423,2013-08-25 21:11:00,
2013-08-25 17:16:00,76.0,51.2,29.59,SW,214,0.0,0.0,42,-99.99,,,-99.99,WSDL version 423,2013-08-25 21:16:00,
2013-08-25 17:21:00,75.7,51.1,29.59,SSW,193,0.0,0.0,42,-99.99,,,-99.99,WSDL version 423,2013-08-25 21:21:00,
2013-08-25 17:26:00,75.5,51.5,29.59,SW,214,0.0,0.0,44,-99.99,,,-99.99,WSDL version 423,2013-08-25 21:26:00,
2013-08-25 17:31:00,74.9,51.1,29.59,SW,215,0.0,0.0,43,-99.99,,,-99.99,WSDL version 423,2013-08-25 21:31:00,
2013-08-25 17:36:00,74.6,50.6,29.56,SW,233,0.0,0.9,43,-99.99,,,-99.99,WSDL version 423,2013-08-25 21:36:00,
2013-08-25 17:41:00,74.3,51.0,29.56,SSW,203,0.0,0.9,44,-99.99,,,-99.99,WSDL version 423,2013-08-25 21:41:00,
2013-08-25 17:46:00,73.8,50.6,29.56,SW,214,0.0,0.0,44,-99.99,,,-99.99,WSDL version 423,2013-08-25 21:46:00,
2013-08-25 17:51:00,73.6,51.0,29.56,SSW,200,0.0,0.0,45,-99.99,,,-99.99,WSDL version 423,2013-08-25 21:51:00,
2013-08-25 17:56:00,73.3,51.1,29.56,SW,219,0.0,0.0,46,-99.99,,,-99.99,WSDL version 423,2013-08-25 21:56:00,
2013-08-25 18:01:00,73.2,51.2,29.56,South,183,0.0,0.9,46,-99.99,,,-99.99,WSDL version 423,2013-08-25 22:01:00,
2013-08-25 18:06:00,73.0,51.2,29.56,SW,215,0.0,0.9,46,-99.99,,,-99.99,WSDL version 423,2013-08-25 22:06:00,
2013-08-25 18:11:00,73.0,51.4,29.56,SSW,199,0.0,0.0,47,-99.99,,,-99.99,WSDL version 423,2013-08-25 22:11:00,
2013-08-25 18:16:00,72.8,51.4,29.56,SW,231,0.0,0.0,47,-99.99,,,-99.99,WSDL version 423,2013-08-25 22:16:00,
2013-08-25 18:21:00,72.5,51.1,29.53,South,177,0.0,1.1,47,-99.99,,,-99.99,WSDL version 423,2013-08-25 22:21:00,
2013-08-25 18:26:00,72.3,51.0,29.53,WSW,245,0.0,1.1,47,-99.99,,,-99.99,WSDL version 423,2013-08-25 22:26:00,
2013-08-25 18:31:00,72.1,51.1,29.53,SW,228,0.0,0.0,48,-99.99,,,-99.99,WSDL version 423,2013-08-25 22:31:00,
2013-08-25 18:36:00,71.9,51.3,29.56,WSW,239,0.0,0.0,49,-99.99,,,-99.99,WSDL version 423,2013-08-25 22:36:00,
2013-08-25 18:41:00,71.7,51.2,29.56,SW,218,0.0,0.0,49,-99.99,,,-99.99,WSDL version 423,2013-08-25 22:41:00,
2013-08-25 18:46:00,71.4,51.5,29.56,West,270,0.0,0.0,50,-99.99,,,-99.99,WSDL version 423,2013-08-25 22:46:00,
2013-08-25 18:51:00,71.2,51.7,29.56,WSW,248,0.0,0.0,50,-99.99,,,-99.99,WSDL version 423,2013-08-25 22:51:00,
2013-08-25 18:56:00,70.9,51.8,29.56,WSW,248,0.0,0.0,51,-99.99,,,-99.99,WSDL version 423,2013-08-25 22:56:00,
2013-08-25 19:01:00,70.7,51.8,29.56,WSW,248,0.0,0.0,52,-99.99,,,-99.99,WSDL version 423,2013-08-25 23:01:00,
2013-08-25 19:06:00,70.5,52.1,29.56,WSW,248,0.0,0.0,52,-99.99,,,-99.99,WSDL version 423,2013-08-25 23:06:00,
2013-08-25 19:11:00,70.4,52.3,29.56,East,90,0.0,0.0,53,-99.99,,,-99.99,WSDL version 423,2013-08-25 23:11:00,
2013-08-25 19:16:00,70.2,52.1,29.56,WSW,248,0.0,0.0,53,-99.99,,,-99.99,WSDL version 423,2013-08-25 23:16:00,
2013-08-25 19:21:00,70.0,52.1,29.56,SW,228,0.0,0.0,53,-99.99,,,-99.99,WSDL version 423,2013-08-25 23:21:00,
2013-08-25 19:26:00,69.9,52.2,29.56,SW,225,0.0,0.0,54,-99.99,,,-99.99,WSDL version 423,2013-08-25 23:26:00,
2013-08-25 19:31:00,69.7,52.3,29.56,SW,231,0.0,0.0,54,-99.99,,,-99.99,WSDL version 423,2013-08-25 23:31:00,
2013-08-25 19:36:00,69.5,52.1,29.53,WSW,248,0.0,0.0,54,-99.99,,,-99.99,WSDL version 423,2013-08-25 23:36:00,
2013-08-25 19:41:00,69.3,52.0,29.53,SSW,203,0.0,0.0,54,-99.99,,,-99.99,WSDL version 423,2013-08-25 23:41:00,
2013-08-25 19:46:00,69.1,51.8,29.53,SW,233,0.0,0.0,54,-99.99,,,-99.99,WSDL version 423,2013-08-25 23:46:00,
2013-08-25 19:51:00,68.9,51.6,29.53,SW,218,0.0,0.0,54,-99.99,,,-99.99,WSDL version 423,2013-08-25 23:51:00,
2013-08-25 19:56:00,68.8,51.5,29.53,WSW,248,0.0,0.0,54,-99.99,,,-99.99,WSDL version 423,2013-08-25 23:56:00,
2013-08-25 20:01:00,68.6,51.6,29.53,WSW,248,0.0,0.0,55,-99.99,,,-99.99,WSDL version 423,2013-08-26 00:01:00,
2013-08-25 20:06:00,68.4,52.0,29.53,WSW,248,0.0,0.0,56,-99.99,,,-99.99,WSDL version 423,2013-08-26 00:06:00,
2013-08-25 20:11:00,68.2,51.9,29.53,WSW,248,0.0,0.0,56,-99.99,,,-99.99,WSDL version 423,2013-08-26 00:11:00,
2013-08-25 20:16:00,68.1,51.8,29.53,WSW,248,0.0,0.0,56,-99.99,,,-99.99,WSDL version 423,2013-08-26 00:16:00,
2013-08-25 20:21:00,68.0,51.7,29.53,WSW,248,0.0,0.0,56,-99.99,,,-99.99,WSDL version 423,2013-08-26 00:21:00,
2013-08-25 20:26:00,67.8,52.2,29.53,West,270,0.0,0.0,58,-99.99,,,-99.99,WSDL version 423,2013-08-26 00:26:00,
2013-08-25 20:31:00,67.6,53.0,29.53,West,270,0.0,0.0,60,-99.99,,,-99.99,WSDL version 423,2013-08-26 00:31:00,
2013-08-25 20:36:00,67.3,53.0,29.53,West,270,0.0,0.0,60,-99.99,,,-99.99,WSDL version 423,2013-08-26 00:36:00,
2013-08-25 20:41:00,67.2,53.6,29.53,West,270,0.0,0.0,63,-99.99,,,-99.99,WSDL version 423,2013-08-26 00:41:00,
2013-08-25 20:46:00,67.0,53.7,29.53,North,350,0.0,0.0,63,-99.99,,,-99.99,WSDL version 423,2013-08-26 00:46:00,
2013-08-25 20:51:00,66.8,53.6,29.53,East,90,0.0,0.0,63,-99.99,,,-99.99,WSDL version 423,2013-08-26 00:51:00,
2013-08-25 20:56:00,66.6,54.1,29.53,East,90,0.0,0.0,65,-99.99,,,-99.99,WSDL version 423,2013-08-26 00:56:00,
2013-08-25 21:01:00,66.5,54.4,29.53,East,90,0.0,0.0,66,-99.99,,,-99.99,WSDL version 423,2013-08-26 01:01:00,
2013-08-25 21:06:00,66.2,55.3,29.53,ESE,113,0.0,0.0,69,-99.99,,,-99.99,WSDL version 423,2013-08-26 01:06:00,
2013-08-25 21:11:00,65.8,55.4,29.53,East,90,0.0,0.0,70,-99.99,,,-99.99,WSDL version 423,2013-08-26 01:11:00,
2013-08-25 21:16:00,65.6,55.6,29.53,East,90,0.0,0.0,71,-99.99,,,-99.99,WSDL version 423,2013-08-26 01:16:00,
2013-08-25 21:21:00,65.3,55.8,29.53,East,90,0.0,0.0,72,-99.99,,,-99.99,WSDL version 423,2013-08-26 01:21:00,
2013-08-25 21:26:00,65.0,55.9,29.53,East,90,0.0,0.0,73,-99.99,,,-99.99,WSDL version 423,2013-08-26 01:26:00,
2013-08-25 21:31:00,64.9,56.1,29.53,East,90,0.0,0.0,73,-99.99,,,-99.99,WSDL version 423,2013-08-26 01:31:00,
2013-08-25 21:36:00,64.8,56.3,29.53,East,90,0.0,0.0,75,-99.99,,,-99.99,WSDL version 423,2013-08-26 01:36:00,
2013-08-25 21:41:00,64.7,56.8,29.53,East,90,0.0,0.0,76,-99.99,,,-99.99,WSDL version 423,2013-08-26 01:41:00,
2013-08-25 21:46:00,64.5,57.3,29.53,ESE,120,0.0,0.0,78,-99.99,,,-99.99,WSDL version 423,2013-08-26 01:46:00,
2013-08-25 21:51:00,64.3,57.5,29.53,SSW,203,0.0,0.0,80,-99.99,,,-99.99,WSDL version 423,2013-08-26 01:51:00,
2013-08-25 21:56:00,64.0,57.3,29.53,SSW,213,0.0,0.0,79,-99.99,,,-99.99,WSDL version 423,2013-08-26 01:56:00,
2013-08-25 22:01:00,63.6,57.7,29.53,SSE,163,0.0,0.9,81,-99.99,,,-99.99,WSDL version 423,2013-08-26 02:01:00,
2013-08-25 22:06:00,63.4,57.6,29.53,SW,233,0.0,0.9,81,-99.99,,,-99.99,WSDL version 423,2013-08-26 02:06:00,
2013-08-25 22:11:00,63.2,57.7,29.53,WSW,239,0.0,0.9,82,-99.99,,,-99.99,WSDL version 423,2013-08-26 02:11:00,
2013-08-25 22:16:00,63.1,57.6,29.53,WSW,239,0.0,0.9,82,-99.99,,,-99.99,WSDL version 423,2013-08-26 02:16:00,
2013-08-25 22:21:00,63.1,57.7,29.53,WSW,248,0.0,0.0,83,-99.99,,,-99.99,WSDL version 423,2013-08-26 02:21:00,
2013-08-25 22:26:00,63.0,57.8,29.53,NW,312,0.0,0.0,82,-99.99,,,-99.99,WSDL version 423,2013-08-26 02:26:00,
2013-08-25 22:31:00,62.8,57.5,29.53,SE,135,0.0,0.0,83,-99.99,,,-99.99,WSDL version 423,2013-08-26 02:31:00,
2013-08-25 22:36:00,62.7,57.7,29.53,WNW,293,0.0,0.0,83,-99.99,,,-99.99,WSDL version 423,2013-08-26 02:36:00,
2013-08-25 22:41:00,62.4,57.8,29.53,SSE,158,0.0,0.0,86,-99.99,,,-99.99,WSDL version 423,2013-08-26 02:41:00,
2013-08-25 22:46:00,62.2,58.0,29.53,NNE,18,0.0,0.0,86,-99.99,,,-99.99,WSDL version 423,2013-08-26 02:46:00,
2013-08-25 22:51:00,62.0,58.3,29.53,NW,315,0.0,0.0,89,-99.99,,,-99.99,WSDL version 423,2013-08-26 02:51:00,
2013-08-25 22:56:00,61.8,58.6,29.53,ESE,120,0.0,0.0,89,-99.99,,,-99.99,WSDL version 423,2013-08-26 02:56:00,
2013-08-25 23:01:00,61.7,58.5,29.53,SE,129,0.0,0.0,90,-99.99,,,-99.99,WSDL version 423,2013-08-26 03:01:00,
2013-08-25 23:06:00,61.6,58.8,29.50,NE,38,0.0,0.0,90,-99.99,,,-99.99,WSDL version 423,2013-08-26 03:06:00,
2013-08-25 23:11:00,61.5,58.6,29.50,ESE,115,0.0,0.0,90,-99.99,,,-99.99,WSDL version 423,2013-08-26 03:11:00,
2013-08-25 23:16:00,61.4,58.9,29.50,SW,225,0.0,0.0,92,-99.99,,,-99.99,WSDL version 423,2013-08-26 03:16:00,
2013-08-25 23:21:00,61.4,59.1,29.50,NNW,338,0.0,0.0,92,-99.99,,,-99.99,WSDL version 423,2013-08-26 03:21:00,
2013-08-25 23:26:00,61.3,59.4,29.50,NW,315,0.0,0.0,93,-99.99,,,-99.99,WSDL version 423,2013-08-26 03:26:00,
2013-08-25 23:31:00,61.3,59.4,29.50,NW,315,0.0,0.0,93,-99.99,,,-99.99,WSDL version 423,2013-08-26 03:31:00,
2013-08-25 23:36:00,61.3,59.7,29.50,South,180,0.0,0.0,94,-99.99,,,-99.99,WSDL version 423,2013-08-26 03:36:00,
2013-08-25 23:41:00,61.3,59.7,29.50,WSW,248,0.0,0.0,94,-99.99,,,-99.99,WSDL version 423,2013-08-26 03:41:00,
2013-08-25 23:46:00,61.3,59.7,29.50,South,183,0.0,0.0,94,-99.99,,,-99.99,WSDL version 423,2013-08-26 03:46:00,
2013-08-25 23:51:00,61.2,59.6,29.50,SSW,205,0.0,0.0,94,-99.99,,,-99.99,WSDL version 423,2013-08-26 03:51:00,
2013-08-25 23:56:00,61.2,59.6,29.50,SSW,203,0.0,0.0,95,-99.99,,,-99.99,WSDL version 423,2013-08-26 03:56:00,